Regional Weather Roundup
Issued by NWS

Home | Current Version | Previous Version | Graphics & Text | Print | Product List | Glossary Off
Versions: 1 2 3 4 5 6 7 8 9 10 11 12 13 14 15 16 17 18 19 20 21 22 23 24 25 26 27 28 29 30 31 32 33 34 35 36 37 38 39 40 41 42 43 44 45 46 47 48 49 50

000
ASUS43 KDTX 272101
RWRMI
MICHIGAN HOURLY REGIONAL WEATHER ROUNDUP
NATIONAL WEATHER SERVICE DETROIT/PONTIAC MI
400 PM EST FRI FEB 27 2015

NOTE: "FAIR" INDICATES FEW OR NO CLOUDS BELOW 12,000 FEET WITH NO
SIGNIFICANT WEATHER AND/OR OBSTRUCTION TO VISIBILITY.

MIZ047>049-052>055-059>063-066>070-074>076-081>083-272200-
SOUTHEAST LOWER MICHIGAN

CITY           SKY/WX    TMP DP  RH WIND       PRES   REMARKS
ADRIAN         MOSUNNY   17  -2  43 W7        30.57R WCI   8
ALMA           PTSUNNY   18   2  50 W9G20     30.53R WCI   7
ANN ARBOR      MOSUNNY   17  -2  43 NW10      30.55R WCI   5
BAD AXE        SUNNY     15   2  58 W12G17    30.52R WCI   1
CARO           SUNNY     16   2  54 SW12G17   30.52S WCI   3
DETROIT CITY   SUNNY     20  -4  34 SW8       30.55R WCI  10
DETROIT        MOSUNNY   19  -1  41 SW9       30.57R WCI   8
FLINT          MOSUNNY   18   2  49 W12       30.54R WCI   5
GROSSE ILE     SUNNY     16  -2  45 S12       30.56R WCI   3
HILLSDALE      MOSUNNY   17  -2  44 W7        30.53S WCI   7
HOWELL         SUNNY     16  -1  47 W8        30.53R WCI   5

CITY           SKY/WX    TMP DP  RH WIND       PRES   REMARKS
JACKSON        SUNNY     15  -3  44 W9        30.54R WCI   3
LAMBERTVILLE   SUNNY     19  -4  35 W5        30.60R WCI  13
LANSING        MOSUNNY   18   1  47 W13       30.54R WCI   5
LAPEER         FAIR      16  -1  47 W9        30.53R WCI   5
MASON          PTSUNNY   18   0  45 W10       30.53S WCI   6
MT. CLEMENS    MOSUNNY   15   3  59 SE12      30.53R WCI   2
PONTIAC        MOSUNNY   16  -1  47 W12       30.51R WCI   3
PORT HOPE        N/A     14   0  53 SW10G18   30.50S WCI   1
PORT HURON     SUNNY     16  -2  45 W5        30.55S WCI   9
TRI CITIES     SUNNY     17   2  51 SW17      30.53R WCI   1
TROY           MOSUNNY   22  -4  32 W6        30.56R WCI  14
SAGINAW HB     SUNNY     19   3  49 SW12G18   30.53S WCI   7
$$
MIZ043>046-050>051-056>058-064>065-071>073-077>080-272200-
SOUTHWEST LOWER MICHIGAN

CITY           SKY/WX    TMP DP  RH WIND       PRES   REMARKS
BATTLE CREEK   CLOUDY    18   3  52 W9        30.54R WCI   7
BENTON HARBOR  SUNNY     15   3  59 SW14      30.59R WCI   0
BIG RAPIDS     SUNNY     19   2  48 W9        30.48R WCI   8
COLDWATER      CLOUDY    17   0  48 W9        30.55S WCI   5
FREMONT        FAIR      18  -1  45 W10       30.52S WCI   6
HOLLAND        CLOUDY    19   5  54 W9        30.56S WCI   8
GRAND RAPIDS   LGT SNOW  17  10  74 W9        30.54S WCI   6
IONIA          CLOUDY    20   6  55 SW16      30.52S WCI   5
KALAMAZOO      PTSUNNY   17   3  54 W14       30.55S WCI   3
LUDINGTON      MOSUNNY   16   3  56 SW12      30.53S WCI   3
MARSHALL       CLOUDY    16   1  51 SW10      30.54R WCI   3
MOUNT PLEASANT PTSUNNY   19   3  50 W13G18    30.50S WCI   5
MUSKEGON       PTSUNNY   18   4  54 W8        30.56R WCI   8
SOUTH HAVEN    PTSUNNY   18   3  53 W8G18     30.58R WCI   7
$$
MIZ016>042-272200-
NORTHERN LOWER MICHIGAN

CITY           SKY/WX    TMP DP  RH WIND       PRES   REMARKS
ALPENA         MIX PCPN  19  -1  41 SW8       30.44R WCI   9
BEAVER ISLAND  SUNNY     13   2  64 W14       30.46R WCI  -3
BELLAIRE       PTSUNNY   17   3  52 SW6G16    30.49S WCI   9
CADILLAC       MOSUNNY   15   1  55 SW15      30.41S WCI   0
CHARLEVOIX     SUNNY     14   4  64 W13G18    30.50S WCI  -1
FRANKFORT      CLOUDY    15   6  67 W7        30.50S WCI   6
GAYLORD        MOSUNNY   12   1  61 W9G20     30.40R WCI   0
GRAYLING       MOSUNNY   16   1  51 W10G16    30.43R WCI   4
HARBOR SPRINGS SUNNY     13   2  61 W9G18     30.46S WCI   1
HOUGHTON LAKE  MOSUNNY   16   1  51 SW7       30.44R WCI   6
MANISTEE       PTSUNNY   16   1  53 W12G21    30.52R WCI   3
OSCODA         SUNNY     20   1  44 SW7       30.45S WCI  11
PELLSTON       SUNNY     13   1  59 SW10G24   30.46S WCI   0
ROGERS CITY    SUNNY     18   3  51 W9        30.45S WCI   7
TRAVERSE CITY  PTSUNNY   16   3  56 W10       30.48R WCI   4
$$
MIZ007>008-015-272200-
EASTERN UPPER MICHIGAN

CITY           SKY/WX    TMP DP  RH WIND       PRES   REMARKS
KINROSS        SUNNY     16   3  57 SW12G17   30.41R WCI   3
MACKINAC ISLAN MOSUNNY   12   2  66 W10G20    30.45R WCI  -2
NEWBERRY       SUNNY     15  -2  47 W7        30.39S WCI   5
S. S. MARIE    SUNNY     17  -1  45 NW5       30.40S WCI  10
MUNISING         N/A     14   2  58 N3        30.40F
$$
MIZ004>006-011>014-085-272200-
CENTRAL UPPER MICHIGAN

CITY           SKY/WX    TMP DP  RH WIND       PRES   REMARKS
MANISTIQUE     SUNNY     16   0  50 S8        30.43R WCI   5
ESCANABA       SUNNY     16   1  53 S14       30.44S WCI   1
MENOMINEE      SUNNY     18  -2  41 SW10G16   30.45S WCI   6
SAWYER-GWINN   SUNNY     19   0  42 W6G16     30.34S WCI  11
$$
MIZ001>003-009>011-084-272200-
WESTERN UPPER MICHIGAN

CITY           SKY/WX    TMP DP  RH WIND       PRES   REMARKS
IRON MOUNTAIN  SUNNY     20  -2  38 W6        30.36S WCI  12
HOUGHTON       SUNNY     12  -4  48 W15G24    30.34F WCI  -4
COPPER HARBOR    N/A     17  -4  39 N9        30.36F WCI   6
IRONWOOD       SUNNY     16  -2  45 W10G17    30.36S WCI   3
$$

ABBREVIATIONS USED IN REMARKS
   TC - TEMPERATURE IN CELSIUS
  WCI - WIND CHILL INDEX
   HX - HEAT INDEX
  VSB - VISIBILITY



USA.gov is the U.S. government's official web portal to all federal, state and local government web resources and services.